Weather History for Livingston, MT

Change the Weather History Date:

Friday, November 30, 2012

  Actual Average Record
Temperature  
Mean Temperature 49 °F 28 °F  
Max Temperature 55 °F 37 °F 68 °F (1999)
Min Temperature 43 °F 19 °F -13 °F (1985)
Degree Days  
Heating Degree Days 16 37  
Month to date heating degree days 932  
Since 1 July heating degree days 1959  
Cooling Degree Days 0 0  
Month to date cooling degree days 0  
Year to date cooling degree days 230  
Moisture  
Dew Point 30 °F    
Average Humidity 45    
Maximum Humidity 74    
Minimum Humidity 37    
Precipitation  
Precipitation 0.00 in 0.02 in 0.37 in (1975)
Month to date precipitation 0.59  
Year to date precipitation 14.29  
Sea Level Pressure  
Sea Level Pressure 29.64 in    
Wind  
Wind Speed 25 mph (WSW)    
Max Wind Speed 38 mph    
Max Gust Speed 48 mph    
Visibility 10 miles    
Events      
T = Trace of Precipitation, MM = Missing Value Source: NWS Daily Summary

Daily Weather History Graph

Daily Weather History Graph

Search for Another Location

Airport:

Trip Planner

Search our weather history database for the weather conditions in past years. The results will help you decide how hot, cold, wet, or windy it might be!

Date:

Astronomy

Nov. 30, 2012 Rise Set
Actual Time 7:41 AM MST 4:39 PM MST
Civil Twilight 7:08 AM MST 5:13 PM MST
Nautical Twilight 6:30 AM MST 5:50 PM MST
Astronomical Twilight 5:55 AM MST 6:25 PM MST
Moon 6:38 PM MST (11/30) 9:15 AM MST (11/30)
Length of Visible Light 10h 05m
Length of Day
8h 57m
Waning Gibbous, 96% of the Moon is Illuminated
Nov 30
Waning Gibbous
Dec 6
Last Quarter
Dec 13
New
Dec 19
First Quarter
Dec 28
Full

Hourly Weather History & Observations

Time (MST) Temp. Windchill Dew Point Humidity Pressure Visibility Wind Dir Wind Speed Gust Speed Precip Events Conditions
12:53 AM 52.0 °F - 26.1 °F 37% 29.74 in 10.0 mi SW 27.6 mph 39.1 mph N/A   Clear
1:53 AM 51.1 °F - 27.0 °F 39% 29.74 in 10.0 mi SW 26.5 mph 41.4 mph N/A   Clear
2:53 AM 52.0 °F - 27.0 °F 38% 29.75 in 10.0 mi SW 23.0 mph 35.7 mph N/A   Clear
3:53 AM 51.1 °F - 27.0 °F 39% 29.73 in 10.0 mi WSW 19.6 mph 31.1 mph N/A   Clear
4:53 AM 50.0 °F - 27.0 °F 41% 29.72 in 10.0 mi West 16.1 mph 28.8 mph N/A   Scattered Clouds
5:53 AM 51.1 °F - 28.0 °F 41% 29.68 in 10.0 mi SW 24.2 mph 33.4 mph N/A   Clear
6:53 AM 52.0 °F - 28.0 °F 40% 29.68 in 10.0 mi SW 24.2 mph 33.4 mph N/A   Clear
7:53 AM 52.0 °F - 28.9 °F 41% 29.65 in 10.0 mi SW 26.5 mph 36.8 mph N/A   Clear
8:53 AM 52.0 °F - 30.0 °F 43% 29.65 in 10.0 mi SW 24.2 mph 32.2 mph N/A   Clear
9:53 AM 55.0 °F - 30.9 °F 40% 29.60 in 10.0 mi SSW 25.3 mph 39.1 mph N/A   Clear
10:53 AM 55.9 °F - 30.0 °F 37% 29.58 in 10.0 mi SW 27.6 mph 39.1 mph N/A   Clear
11:53 AM 55.0 °F - 30.0 °F 38% 29.55 in 10.0 mi WSW 29.9 mph 43.7 mph N/A   Clear
12:53 PM 55.0 °F - 30.0 °F 38% 29.53 in 10.0 mi WSW 38.0 mph 48.3 mph N/A   Overcast
1:53 PM 54.0 °F - 30.0 °F 40% 29.56 in 10.0 mi WSW 35.7 mph 44.9 mph N/A   Overcast
2:53 PM 53.1 °F - 30.9 °F 43% 29.57 in 10.0 mi SW 26.5 mph 39.1 mph N/A   Overcast
3:53 PM 51.1 °F - 32.0 °F 48% 29.58 in 10.0 mi SSW 24.2 mph 38.0 mph N/A   Overcast
4:53 PM 52.0 °F - 30.0 °F 43% 29.59 in 10.0 mi SW 34.5 mph 43.7 mph N/A   Overcast
5:53 PM 52.0 °F - 30.9 °F 45% 29.61 in 10.0 mi SW 28.8 mph 40.3 mph N/A   Overcast
6:53 PM 51.1 °F - 32.0 °F 48% 29.64 in 10.0 mi West 16.1 mph 28.8 mph N/A   Overcast
9:53 PM 43.0 °F 38.8 °F 35.1 °F 74% 29.68 in 10.0 mi NW 6.9 mph - N/A   Partly Cloudy
10:53 PM 44.1 °F 39.0 °F 34.0 °F 68% 29.67 in 10.0 mi West 9.2 mph - N/A   Mostly Cloudy
11:53 PM 43.0 °F 37.2 °F 33.1 °F 68% 29.69 in 10.0 mi NNW 10.4 mph - N/A   Mostly Cloudy